Location: Newark
(43.9494°N, 6.8108°E)
Time: 01:53:54
(UTC+00:00)

Transit 2A Rocket - Pass Details

Date: 26 October 2019
Orbit: 594 x 909 km, 66.7° (Epoch: 22 November)

Event Time Altitude Azimuth Distance (km) Brightness Sun altitude
Exits shadow 02:46:08 22° 49° (NE) 1,457 6.9 -35.3°
Drops below altitude 10° 02:47:49 10° 41° (NE) 2,069 7.8 -35.0°
Sets 02:50:04 0° 37° (NE) 2,945 8.7 -34.6°
